Flag for Poland Weather past 2 weeks in Tychy, Poland

Now
75 °F

Passing clouds.


Feels Like: 78 °F
Forecast: 55 / 74 °F
Wind: 3 mph from North

Location: Katowice Airport

Current Time: Jun 30, 2015 at 5:34:30 PM

Latest Report: Jun 30, 2015 at 5:00 PM


Visibility: N/A

Pressure: 30.12 "Hg

Humidity: 41%

Dew point: 50 °F

Location of TychyLocation

Historic Weather in Tychy — Graph

°F

Tychy temperature yesterday

Maximum temperature yesterday: 66 °F (at 1:30 PM)
Minimum temperature yesterday: 54 °F (at 11:00 PM)
Average temperature yesterday: 60 °F

Past Weeks' High & Low Weather Summary

 TemperatureHumidityPressure
High75 °F (Jun 30, 4:00 PM)100% (Jun 18, 12:30 AM)30.24 "Hg (Jun 18, 12:30 AM)
Low39 °F (Jun 20, 4:30 AM)39% (Jun 30, 4:00 PM)29.74 "Hg (Jun 23, 3:30 AM)
Average57 °F76%30.03 "Hg
* Reported Jun 15 4:00 PM — Jun 30 4:30 PM, Tychy, Weather by CustomWeather, © 2015

Note: Actual official high and low records may vary slightly from our data, if they occured in-between our weather recording intervals... More about our weather records

Advertising

Tychy weather history for previous 24 hours

 ConditionsComfort  
Time TempWeatherWind HumidityBarometerVisibility
4:30 PM
Tue, Jun 30
75 °FPassing clouds.7 mph39%30.12 "HgN/A
4:00 PM75 °FPassing clouds.7 mph39%30.12 "HgN/A
3:00 PM73 °FPassing clouds.3 mph44%30.15 "HgN/A
2:30 PM73 °FPassing clouds.6 mph44%30.15 "HgN/A
2:00 PM73 °FPassing clouds.2 mph44%30.15 "HgN/A
1:30 PM73 °FPassing clouds.5 mph47%30.15 "HgN/A
1:00 PM72 °FSunny.3 mph50%30.15 "Hg10 mi
12:30 PM72 °FPassing clouds.5 mph47%30.15 "HgN/A
12:00 PM70 °FPassing clouds.6 mph46%30.18 "HgN/A
11:30 AM70 °FSunny.2 mph50%30.18 "Hg10 mi
11:00 AM70 °FSunny.2 mph50%30.18 "Hg10 mi
10:30 AM68 °FPassing clouds.5 mph53%30.18 "HgN/A
10:00 AM66 °FSunny.1 mph56%30.18 "Hg10 mi
9:30 AM66 °FSunny.3 mph56%30.18 "Hg10 mi
9:00 AM66 °FSunny.2 mph56%30.18 "Hg10 mi
8:30 AM64 °FSunny.2 mph60%30.18 "Hg10 mi
8:00 AM63 °FSunny.1 mph68%30.18 "Hg10 mi
7:30 AM59 °FSunny.1 mph77%30.18 "Hg10 mi
7:00 AM55 °FClear.1 mph88%30.18 "Hg5 mi
6:00 AM48 °FFog.2 mph94%30.18 "Hg2 mi
5:00 AM43 °FFog.1 mph100%30.18 "Hg1 mi
4:30 AM45 °FFog.2 mph93%30.18 "Hg2 mi
4:00 AM45 °FQuite cool.1 mph93%30.18 "Hg1 mi
3:30 AM46 °FCool.3 mph100%30.15 "Hg1 mi
3:00 AM46 °FCool.2 mph93%30.18 "Hg1 mi
2:30 AM46 °FFog.1 mph100%30.18 "Hg4 mi
2:00 AM48 °FFog.3 mph100%30.18 "Hg4 mi
1:30 AM48 °FCool.2 mph100%30.18 "Hg4 mi
1:00 AM50 °FFog.3 mph94%30.18 "HgN/A
12:30 AM52 °FFog.1 mph94%30.18 "HgN/A
12:00 AM52 °FClear.1 mph94%30.18 "Hg10 mi
11:30 PM
Mon, Jun 29
54 °FClear.3 mph94%30.18 "Hg10 mi
11:00 PM54 °FClear.3 mph94%30.18 "Hg10 mi
10:30 PM55 °FClear.3 mph88%30.18 "Hg10 mi
10:00 PM57 °FClear.1 mph88%30.18 "Hg10 mi
9:30 PM59 °FSunny.1 mph82%30.18 "Hg10 mi
9:00 PM61 °FSunny.3 mph77%30.18 "Hg10 mi
8:30 PM61 °FSunny.2 mph77%30.15 "Hg10 mi
8:00 PM61 °FSunny.2 mph77%30.15 "Hg10 mi
7:30 PM63 °FPassing clouds.5 mph68%30.15 "HgN/A
7:00 PM63 °FScattered clouds.3 mph68%30.15 "HgN/A
6:30 PM64 °FPassing clouds.7 mph64%30.15 "HgN/A
6:00 PM63 °FPassing clouds.9 mph73%30.15 "HgN/A
5:30 PM63 °FScattered clouds.13 mph68%30.15 "HgN/A
5:00 PM64 °FScattered clouds.13 mph64%30.15 "HgN/A
Weather by CustomWeather, © 2015

See weather overviewHow to use our weather pages